Weather History for Springfield, OH

Change the Weather History Date:

Monday, February 10, 2014

  Actual Average (KDAY) Record (KDAY)
Temperature  
Mean Temperature 10 °F 30 °F  
Max Temperature 18 °F 37 °F 72 °F (1932)
Min Temperature 1 °F 22 °F -22 °F (1899)
Degree Days  
Heating Degree Days 56 35  
Month to date heating degree days 360  
Since 1 July heating degree days 3683  
Cooling Degree Days 0 0  
Month to date cooling degree days 0  
Year to date cooling degree days 0  
Moisture  
Dew Point 3 °F    
Average Humidity 80    
Maximum Humidity 88    
Minimum Humidity 59    
Precipitation  
Precipitation 0.00 in 0.08 in 2.17 in (1959)
Month to date precipitation 0.81  
Year to date precipitation 3.52  
Snow  
Snow 0.00 in 0.20 in 2.50 in (1944)
Month to date snowfall 2.2  
Since 1 July snowfall 15.6  
Snow Depth -    
Sea Level Pressure  
Sea Level Pressure 30.35 in    
Wind  
Wind Speed 6 mph (WNW)    
Max Wind Speed 8 mph    
Max Gust Speed -    
Visibility 6 miles    
Events      
T = Trace of Precipitation, MM = Missing Value Source: NWS Daily Summary

Daily Weather History Graph

Daily Weather History Graph

Search for Another Location

Airport:

Trip Planner

Search our weather history database for the weather conditions in past years. The results will help you decide how hot, cold, wet, or windy it might be!

Date:

Astronomy

Feb. 10, 2014 Rise Set
Actual Time 7:34 AM EST 6:05 PM EST
Civil Twilight 7:06 AM EST 6:33 PM EST
Nautical Twilight 6:34 AM EST 7:05 PM EST
Astronomical Twilight 6:02 AM EST 7:36 PM EST
Moon 2:34 PM EST (2/10) 4:26 AM EST (2/10)
Length of Visible Light 11h 27m
Length of Day
10h 31m
Waxing Gibbous, 84% of the Moon is Illuminated
Feb 10
Waxing Gibbous
Feb 14
Full
Feb 22
Last Quarter
Mar 1
New
Mar 8
First Quarter

Hourly Weather History & Observations

Time (EST) Temp. Windchill Dew Point Humidity Pressure Visibility Wind Dir Wind Speed Gust Speed Precip Events Conditions
12:05 AM 12.2 °F 0.7 °F 8.6 °F 85% 30.21 in 7.0 mi West 8.1 mph - N/A   Mostly Cloudy
12:42 AM 10.4 °F -1.5 °F 6.8 °F 85% 30.21 in 7.0 mi West 8.1 mph - N/A   Scattered Clouds
12:56 AM 11.1 °F -0.6 °F 7.2 °F 84% 30.27 in 7.0 mi West 8.1 mph - N/A   Clear
1:56 AM 7.2 °F -5.4 °F 4.1 °F 87% 30.28 in 6.0 mi West 8.1 mph - N/A   Clear
2:56 AM 5.0 °F -6.9 °F 2.1 °F 88% 30.29 in 6.0 mi West 6.9 mph - N/A   Clear
3:56 AM 5.0 °F -8.1 °F 2.1 °F 88% 30.28 in 6.0 mi WNW 8.1 mph - N/A   Clear
4:56 AM 2.1 °F -7.4 °F -0.9 °F 87% 30.30 in 5.0 mi West 4.6 mph - N/A   Clear
5:56 AM 3.0 °F -4.4 °F 0.1 °F 88% 30.32 in 5.0 mi WNW 3.5 mph - N/A   Clear
6:56 AM 3.0 °F - 0.1 °F 88% 30.33 in 4.0 mi Calm Calm - N/A   Clear
7:37 AM 1.4 °F -6.2 °F -2.2 °F 85% 30.27 in 2.5 mi WNW 3.5 mph - N/A   Clear
7:56 AM 1.0 °F -6.7 °F -1.8 °F 88% 30.34 in 2.5 mi WNW 3.5 mph - N/A   Clear
8:44 AM 1.4 °F -8.3 °F -2.2 °F 85% 30.29 in 3.0 mi NW 4.6 mph - N/A   Clear
8:56 AM 2.1 °F -7.4 °F -0.9 °F 87% 30.36 in 3.0 mi WNW 4.6 mph - N/A   Clear
9:46 AM 5.0 °F -6.9 °F 1.4 °F 85% 30.32 in 4.0 mi WSW 6.9 mph - N/A   Partly Cloudy
9:56 AM 6.1 °F -4.3 °F 3.0 °F 87% 30.39 in 4.0 mi West 5.8 mph - N/A   Clear
10:56 AM 9.1 °F -0.7 °F 6.1 °F 87% 30.40 in 4.0 mi WNW 5.8 mph - 0.00 in   Clear
11:56 AM 13.1 °F - 8.1 °F 80% 30.38 in 5.0 mi Calm Calm - N/A   Haze
12:56 PM 16.2 °F 9.0 °F 6.1 °F 65% 30.37 in 5.0 mi West 4.6 mph - N/A   Haze
1:56 PM 17.1 °F 8.7 °F 7.2 °F 65% 30.36 in 6.0 mi WNW 5.8 mph - N/A   Haze
2:56 PM 17.1 °F 10.0 °F 6.1 °F 62% 30.36 in 7.0 mi West 4.6 mph - N/A   Clear
3:56 PM 18.1 °F 10.0 °F 6.1 °F 59% 30.37 in 7.0 mi NW 5.8 mph - N/A   Clear
4:56 PM 16.2 °F 6.5 °F 5.0 °F 62% 30.37 in 7.0 mi NW 6.9 mph - N/A   Clear
5:56 PM 13.1 °F 4.0 °F 5.0 °F 70% 30.39 in 6.0 mi NNW 5.8 mph - N/A   Haze
6:56 PM 10.0 °F 1.8 °F 2.1 °F 70% 30.41 in 8.0 mi NNW 4.6 mph - N/A   Clear
7:56 PM 8.1 °F -2.0 °F 1.0 °F 73% 30.43 in 7.0 mi NW 5.8 mph - N/A   Clear
8:56 PM 5.0 °F -4.1 °F 0.1 °F 80% 30.44 in 7.0 mi NW 4.6 mph - N/A   Clear
9:56 PM 4.1 °F -5.1 °F -0.9 °F 80% 30.45 in 7.0 mi NW 4.6 mph - N/A   Clear
10:56 PM 2.1 °F -7.4 °F -2.9 °F 79% 30.45 in 8.0 mi NW 4.6 mph - N/A   Clear
11:56 PM 1.0 °F - -4.0 °F 79% 30.44 in 8.0 mi Calm Calm - N/A   Clear